Location: Newark
(52.9300°N, 3.3400°W)
Time: 11:44:09
(UTC+00:00)

X-37B - Pass Details

Date: 13 March 2021
Orbit: 380 x 394 km, 45.0° (Epoch: 07 April)

Event Time Altitude Azimuth Distance (km) Brightness Sun altitude
Rises 20:29:38 0° 234° (SW) 2,272 4.9 -20.7°
Reaches altitude 10° 20:32:07 10° 214° (SW) 1,421 3.5 -21.0°
Enters shadow 20:32:18 11° 212° (SSW) 1,373 3.4 -21.0°
